Satellite-Ground Cal/Val Region Overpasses Predictions

Prediction of Satellite NPP Overpassing Cal/Val Region: PacNW

Region Location: (Latitude: 10.00, Longitude: 139.50) to (Latitude: 22.70, Longitude: 165.60).

Table of predicted overpasses for the next 14.0 days since TLE Epoch: 11/10/2019
Interval Starting Time Starting Location Ending Time Ending Location
1 11/10/2019 15:36:43 ( 22.69, 150.74) 11/10/2019 15:40:19 ( 10.01, 147.73)
2 11/11/2019 02:45:48 ( 10.00, 158.27) 11/11/2019 02:49:24 ( 22.68, 155.26)
3 11/11/2019 15:17:42 ( 22.64, 155.49) 11/11/2019 15:21:17 ( 10.02, 152.49)
4 11/12/2019 02:26:46 ( 10.05, 163.02) 11/12/2019 02:30:21 ( 22.67, 160.02)
5 11/12/2019 14:58:39 ( 22.65, 160.25) 11/12/2019 15:02:14 ( 10.03, 157.25)
6 11/13/2019 02:10:23 ( 19.38, 165.59) 11/13/2019 02:11:19 ( 22.66, 164.78)
7 11/13/2019 03:49:14 ( 10.05, 142.40) 11/13/2019 03:52:42 ( 22.26, 139.51)
8 11/13/2019 14:39:37 ( 22.66, 165.01) 11/13/2019 14:43:12 ( 10.04, 162.01)
9 11/13/2019 16:21:07 ( 22.66, 139.63) 11/13/2019 16:21:15 ( 22.19, 139.51)
10 11/14/2019 03:30:11 ( 10.04, 147.16) 11/14/2019 03:33:46 ( 22.66, 144.17)
11 11/14/2019 16:02:04 ( 22.67, 144.39) 11/14/2019 16:05:39 ( 10.04, 141.39)
12 11/15/2019 03:11:09 ( 10.03, 151.92) 11/15/2019 03:14:44 ( 22.65, 148.93)
13 11/15/2019 15:43:02 ( 22.68, 149.15) 11/15/2019 15:46:37 ( 10.05, 146.15)
14 11/16/2019 02:52:06 ( 10.02, 156.68) 11/16/2019 02:55:41 ( 22.64, 153.69)
15 11/16/2019 15:23:59 ( 22.68, 153.91) 11/16/2019 15:27:35 ( 10.00, 150.90)
16 11/17/2019 02:33:04 ( 10.01, 161.44) 11/17/2019 02:36:40 ( 22.69, 158.43)
17 11/17/2019 15:04:57 ( 22.69, 158.67) 11/17/2019 15:08:33 ( 10.01, 155.66)
18 11/18/2019 02:14:47 ( 12.65, 165.60) 11/18/2019 02:17:38 ( 22.68, 163.19)
19 11/18/2019 03:55:31 ( 10.01, 140.83) 11/18/2019 03:57:08 ( 15.71, 139.51)
20 11/18/2019 14:45:55 ( 22.64, 163.42) 11/18/2019 14:49:30 ( 10.02, 160.42)
21 11/19/2019 03:36:29 ( 10.00, 145.59) 11/19/2019 03:40:05 ( 22.68, 142.58)
22 11/19/2019 14:29:57 ( 11.85, 165.59) 11/19/2019 14:30:28 ( 10.03, 165.18)
23 11/19/2019 16:08:23 ( 22.64, 142.80) 11/19/2019 16:11:58 ( 10.02, 139.80)
24 11/20/2019 03:17:28 ( 10.05, 150.33) 11/20/2019 03:21:03 ( 22.68, 147.33)
25 11/20/2019 15:49:20 ( 22.65, 147.56) 11/20/2019 15:52:55 ( 10.03, 144.56)
26 11/21/2019 02:58:25 ( 10.04, 155.09) 11/21/2019 03:02:00 ( 22.67, 152.09)
27 11/21/2019 15:30:18 ( 22.66, 152.32) 11/21/2019 15:33:53 ( 10.04, 149.32)
28 11/22/2019 02:39:23 ( 10.04, 159.85) 11/22/2019 02:42:58 ( 22.66, 156.85)
29 11/22/2019 15:11:15 ( 22.67, 157.08) 11/22/2019 15:14:50 ( 10.05, 154.08)
30 11/23/2019 02:20:20 ( 10.03, 164.61) 11/23/2019 02:23:55 ( 22.65, 161.61)


NCC Satellite Cal/Val Overpasses Prediction Service
